Home   Weather   Fairfield Center   Past weeks
Flag for USA

Past Weather in Fairfield Center, Maine, USA — Yesterday and Last 2 Weeks

Now
48 °F

Light rain. Fog.


Feels Like: 42 °F
Forecast: 49 / 42 °F
Wind: 17 mph from Southeast

Location: Augusta State Airport

Current Time: Dec 14, 2019 at 11:18:55 am

Latest Report: Dec 14, 2019 at 10:33 am


Visibility: 2 mi

Pressure: 29.61 "Hg

Humidity: 93%

Dew Point: 46 °F

Location of Fairfield CenterLocation

Past Weather in Fairfield Center — Graph

°F

Fairfield Center Temperature Yesterday

Maximum temperature yesterday: 37 °F (at 11:53 am)
Minimum temperature yesterday: 20 °F (at 1:53 am)
Average temperature yesterday: 30 °F

High & Low Weather Summary for the Past Weeks

 TemperatureHumidityPressure
High52 °F (Dec 9, 10:53 pm)100% (Dec 9, 12:53 pm)30.71 "Hg (Dec 9, 12:53 pm)
Low13 °F (Nov 30, 5:53 am)30% (Dec 12, 1:53 pm)29.22 "Hg (Dec 3, 1:12 pm)
Average30 °F72%29.94 "Hg
* Reported Nov 29 10:53 am — Dec 14 10:00 am, Fairfield Center. Weather by CustomWeather, © 2019

Note: Actual official high and low records may vary slightly from our data, if they occured in-between our weather recording intervals... More about our weather records

Fairfield Center Weather History for the Previous 24 Hours

Scroll right to see more
 ConditionsComfort  
Time TempWeatherWind HumidityBarometerVisibility
10:00 am
Sat, Dec 14
48 °FRain. Fog.18 mph93%29.66 "Hg2 mi
9:29 am47 °FRain. Fog.18 mph93%29.69 "Hg2 mi
8:57 am47 °FRain. Fog.12 mph93%29.73 "Hg2 mi
8:24 am46 °FRain. Fog.12 mph96%29.76 "Hg2 mi
8:04 am46 °FHeavy rain. Fog.14 mph96%29.79 "Hg2 mi
7:53 am46 °FRain. Fog.10 mph96%29.82 "Hg3 mi
7:08 am46 °FLight rain. Fog.15 mph96%29.86 "Hg4 mi
5:53 am46 °FLight rain. Fog.10 mph96%29.97 "Hg6 mi
4:53 am45 °FLight rain. Fog.12 mph100%30.02 "Hg6 mi
3:53 am44 °FLight rain. Fog.6 mph100%30.06 "Hg4 mi
3:35 am44 °FLight rain. Fog.7 mph96%30.07 "Hg3 mi
3:22 am43 °FRain. Fog.3 mph100%30.08 "Hg2 mi
2:53 am43 °FLight rain. Fog.6 mph100%30.11 "Hg4 mi
2:38 am38 °FLight rain. Fog.5 mph100%30.11 "Hg0 mi
2:18 am35 °FLight rain. Fog.No wind100%30.13 "Hg1 mi
1:53 am35 °FLight rain. Fog.5 mph100%30.16 "Hg0 mi
12:53 am34 °FFog.3 mph100%30.19 "Hg0 mi
12:35 am34 °FLight rain. Fog.No wind100%30.18 "Hg0 mi
11:53 pm
Fri, Dec 13
34 °FFog.3 mph100%30.23 "Hg1 mi
10:53 pm33 °FLight rain. Fog.3 mph100%30.26 "Hg1 mi
10:05 pm33 °FLight rain. Fog.6 mph100%30.27 "Hg1 mi
9:01 pm33 °FFog.3 mph100%30.30 "Hg1 mi
8:03 pm32 °FLight snow. Ice fog.No wind100%30.32 "Hg1 mi
7:53 pm32 °FLight snow. Ice fog.3 mph100%30.34 "Hg1 mi
6:53 pm32 °FLight snow. Ice fog.5 mph100%30.36 "Hg3 mi
5:53 pm32 °FLight rain. Ice fog.3 mph96%30.38 "Hg4 mi
5:26 pm33 °FLight rain. Fog.3 mph88%30.37 "Hg5 mi
4:53 pm34 °FLight rain. Overcast.No wind79%30.39 "Hg8 mi
3:53 pm36 °FOvercast.5 mph64%30.41 "Hg10 mi
3:16 pm36 °FMostly cloudy.6 mph64%30.39 "Hg10 mi
2:53 pm36 °FMostly cloudy.7 mph64%30.41 "Hg10 mi
1:53 pm36 °FOvercast.5 mph62%30.44 "Hg10 mi
12:53 pm37 °FOvercast.6 mph62%30.46 "Hg10 mi
11:53 am37 °FSunny.6 mph60%30.49 "Hg10 mi
Weather by CustomWeather, © 2019

See weather overview

Advertising